TimeEST,TemperatureF,Dew PointF,Humidity,Sea Level PressureIn,VisibilityMPH,Wind Direction,Wind SpeedMPH,Gust SpeedMPH,PrecipitationIn,Events,Conditions,WindDirDegrees,DateUTC
12:53 AM,54.0,48.0,80,30.08,9.0,West,5.8,-,N/A,,Clear,280,2011-11-21 05:53:00
1:53 AM,53.1,46.9,80,30.09,10.0,WNW,4.6,-,N/A,,Clear,290,2011-11-21 06:53:00
2:53 AM,54.0,46.9,77,30.10,10.0,WNW,3.5,-,N/A,,Mostly Cloudy,300,2011-11-21 07:53:00
3:53 AM,52.0,46.0,80,30.13,10.0,NW,4.6,-,0.00,Rain,Light Rain,310,2011-11-21 08:53:00
4:53 AM,50.0,46.9,89,30.14,8.0,Calm,Calm,-,0.01,Rain,Light Rain,0,2011-11-21 09:53:00
5:53 AM,50.0,45.0,83,30.17,10.0,NE,5.8,-,0.00,,Overcast,40,2011-11-21 10:53:00
6:53 AM,50.0,42.8,76,30.20,10.0,NNE,5.8,-,N/A,,Scattered Clouds,20,2011-11-21 11:53:00
7:53 AM,48.9,37.9,66,30.23,10.0,NNE,10.4,-,N/A,,Overcast,30,2011-11-21 12:53:00
8:53 AM,48.0,36.0,63,30.25,10.0,NNE,8.1,19.6,N/A,,Overcast,20,2011-11-21 13:53:00
9:32 AM,50.0,37.4,62,30.27,10.0,NNE,9.2,-,N/A,,Mostly Cloudy,30,2011-11-21 14:32:00
9:50 AM,50.0,37.4,62,30.28,10.0,NNE,11.5,18.4,N/A,,Mostly Cloudy,20,2011-11-21 14:50:00
9:53 AM,50.0,37.0,61,30.28,10.0,NNE,10.4,18.4,N/A,,Mostly Cloudy,20,2011-11-21 14:53:00
10:53 AM,48.0,37.9,68,30.29,10.0,NNE,9.2,18.4,N/A,,Overcast,30,2011-11-21 15:53:00
11:38 AM,48.2,37.4,66,30.28,10.0,NE,12.7,-,N/A,,Overcast,50,2011-11-21 16:38:00
11:53 AM,48.9,37.9,66,30.28,10.0,NE,10.4,-,N/A,,Overcast,40,2011-11-21 16:53:00
12:53 PM,46.9,37.0,68,30.27,10.0,NE,12.7,-,N/A,,Mostly Cloudy,50,2011-11-21 17:53:00
1:53 PM,46.9,35.1,63,30.27,10.0,NE,9.2,-,N/A,,Overcast,40,2011-11-21 18:53:00
2:53 PM,45.0,34.0,65,30.27,10.0,NE,11.5,-,N/A,,Overcast,50,2011-11-21 19:53:00
3:08 PM,44.6,33.8,66,30.28,10.0,NE,10.4,-,N/A,,Partly Cloudy,40,2011-11-21 20:08:00
3:53 PM,43.0,32.0,65,30.29,10.0,ENE,10.4,-,N/A,,Scattered Clouds,60,2011-11-21 20:53:00
4:53 PM,39.2,30.2,70,30.32,10.0,NE,3.5,-,N/A,,Clear,50,2011-11-21 21:53:00
5:53 PM,37.0,28.9,73,30.32,10.0,NE,4.6,-,N/A,,Clear,50,2011-11-21 22:53:00
6:53 PM,37.9,30.0,73,30.34,10.0,NNE,3.5,-,N/A,,Clear,30,2011-11-21 23:53:00
7:53 PM,37.0,30.0,76,30.34,10.0,Calm,Calm,-,N/A,,Clear,0,2011-11-22 00:53:00
8:53 PM,34.0,30.0,85,30.34,10.0,Calm,Calm,-,N/A,,Clear,0,2011-11-22 01:53:00
9:53 PM,30.9,28.9,92,30.36,10.0,Calm,Calm,-,N/A,,Clear,0,2011-11-22 02:53:00
10:53 PM,30.9,28.9,92,30.35,9.0,Calm,Calm,-,N/A,,Clear,0,2011-11-22 03:53:00
11:53 PM,30.0,28.0,92,30.35,10.0,Calm,Calm,-,N/A,,Clear,0,2011-11-22 04:53:00